Regional Weather Roundup
Issued by NWS

Home | Current Version | Previous Version | Text Only | Print | Product List | Glossary Off
Versions: 1 2 3 4 5 6 7 8 9 10 11 12 13 14 15 16 17 18 19 20 21 22 23 24 25 26 27 28 29 30 31 32 33 34 35 36 37 38 39 40 41 42 43 44 45 46 47 48 49 50

000
ASUS43 KFSD 242310
RWRSD

WEATHER ROUNDUP FOR SOUTH DAKOTA
NATIONAL WEATHER SERVICE SIOUX FALLS SD
600 PM CDT TUE APR 24 2018

NOTE: "FAIR" INDICATES FEW OR NO CLOUDS BELOW 12,000 FEET WITH NO
SIGNIFICANT WEATHER AND/OR OBSTRUCTIONS TO VISIBILITY.


SDZ001>005-009-010-012>017-250000-
NORTHWEST AND NORTH CENTRAL SOUTH DAKOTA

CITY           SKY/WX    TMP DP  RH WIND       PRES   REMARKS
BUFFALO          N/A     52  21  29 MISG      30.35F
FAITH            N/A     53  29  39 N8        30.39S
MOBRIDGE       SUNNY     58  28  32 N14G21    30.35S
$$

SDZ012>016-024>037-041>051-057-063-072>074-250000-
SOUTHWEST AND SOUTH CENTRAL SOUTH DAKOTA

CITY           SKY/WX    TMP DP  RH WIND       PRES   REMARKS
RAPID CTY ARPT MOSUNNY   50  25  37 N17       30.41F
PIERRE         MOSUNNY   49  38  65 W9        30.37F
CUSTER         PTSUNNY   39  18  42 NE10      30.38S
ELLSWORTH AFB  MOSUNNY   50  22  33 N14       30.41S
PHILIP         CLOUDY    46  36  68 SW6       30.41F
PINE RIDGE     CLOUDY    43  28  55 N14       30.42F
SPEARFISH      FAIR      43  27  52 N9        30.43F
WINNER         LGT RAIN  42  37  82 N14       30.38S
$$

SDZ004>011-016>023-039-040-250000-
NORTHEAST SOUTH DAKOTA

CITY           SKY/WX    TMP DP  RH WIND       PRES   REMARKS
ABERDEEN       SUNNY     55  32  41 N17       30.34S
WATERTOWN      MOSUNNY   51  34  52 N20G28    30.28S
BROOKINGS      CLOUDY    46  39  76 N15G23    30.27S
SISSETON         N/A     53  34  48 N22G30    30.30F
$$

SDZ017-020-022-023-036>040-048>070-250000-
SOUTHEAST SOUTH DAKOTA

CITY           SKY/WX    TMP DP  RH WIND       PRES   REMARKS
SIOUX FALLS    CLOUDY    46  37  71 N18G28    30.26R
HURON          CLOUDY    45  39  79 N9        30.34R
CHAMBERLAIN    CLOUDY    44  41  89 N9        30.37S
MITCHELL       CLOUDY    46  39  76 N15       30.33R
YANKTON        CLOUDY    48  44  86 N13       30.26R
$$

ABBREVIATIONS USED IN REMARKS
   TC - TEMPERATURE IN CELSIUS
  WCI - WIND CHILL INDEX
   HX - HEAT INDEX
  VSB - VISIBILITY




USA.gov is the U.S. government's official web portal to all federal, state and local government web resources and services.